Location: Lansingburgh
(42.7845°N, 73.6696°W)
Time: 00:48:49
(UTC+00:00)

ACS3 Solar Sail - Pass Details

Date: 05 October 2024
Orbit: 961 x 1022 km, 97.5° (Epoch: 03 November)

Event Time Altitude Azimuth Distance (km) Brightness Sun altitude
Exits shadow 23:39:41 19° 103° (ESE) 2,236 3.0 -14.0°
Maximum altitude 23:42:44 27° 64° (ENE) 1,860 2.8 -14.5°
Drops below altitude 10° 23:47:57 10° 9° (N) 2,840 4.2 -15.5°
Sets 23:50:50 0° 358° (N) 3,799 5.0 -16.0°
